カタログに戻る

DELTA 1 R/B

運用中LEO
NORAD 50·ROCKET BODY·🇺🇸 United States

打ち上げ Aug 12, 1960 から Cape Canaveral Space Force Station

Loading…

次のパス (今後24時間)

TLE

最新Source: Space-Track

元期: Sep 5, 2026, 11:09 UTC

1 00050U 60009B   26248.46469219 -.00000013  00000-0  67013-3 0  9998
2 00050  47.2304 272.5493 0114420 254.3137 104.5004 12.20169313947503

AllMySatでDELTA 1 R/Bをリアルタイム追跡

Download on the App Store